Regional Weather Roundup
Issued by NWS

Home | Current Version | Previous Version | Text Only | Print | Product List | Glossary On
Versions: 1 2 3 4 5 6 7 8 9 10 11 12 13 14 15 16 17 18 19 20 21 22 23 24 25 26 27 28 29 30 31 32 33 34 35 36 37 38 39 40 41 42 43 44 45 46 47 48 49 50
000
ASUS43 KDTX 302101
RWRMI
MICHIGAN HOURLY REGIONAL WEATHER ROUNDUP
NATIONAL WEATHER SERVICE DETROIT/PONTIAC MI
500 PM EDT THU JUL 30 2015

NOTE: "FAIR" INDICATES FEW OR NO CLOUDS BELOW 12,000 FEET WITH NO
SIGNIFICANT WEATHER AND/OR OBSTRUCTION TO VISIBILITY.

MIZ047>049-052>055-059>063-066>070-074>076-081>083-302200-
SOUTHEAST LOWER MICHIGAN

CITY           SKY/WX    TMP DP  RH WIND       PRES   REMARKS
ADRIAN         SUNNY     83  58  42 NW13      29.99S
ALMA           MOSUNNY   84  52  32 W15G25    29.94R
ANN ARBOR      MOSUNNY   84  56  38 W18G26    29.95F
BAD AXE        SUNNY     82  52  35 W16G25    29.89S
CARO           MOSUNNY   83  55  38 W13G20    29.90S
DETROIT CITY   SUNNY     85  55  35 W12G25    29.92S
DETROIT        MOSUNNY   86  56  35 W18G28    29.94F
FLINT          SUNNY     86  54  33 W18G30    29.93S
GROSSE ILE     MOSUNNY   84  55  37 W13G23    29.93S
HILLSDALE      MOSUNNY   83  54  36 W14G25    30.01S
HOWELL         MOSUNNY   84  52  32 W15G21    29.95S

CITY           SKY/WX    TMP DP  RH WIND       PRES   REMARKS
JACKSON        SUNNY     81  57  43 W15G23    29.98S
LAMBERTVILLE   MOSUNNY   84  56  38 W10G20    29.98S
LANSING        SUNNY     84  54  35 W22G30    29.97S
LAPEER         FAIR      84  53  34 W14G22    29.92S
MASON          MOSUNNY   82  55  40 W18G25    29.97S
MONROE         MOSUNNY   84  59  42 W16G22    29.94F
MT. CLEMENS    MOSUNNY   85  56  37 W15G22    29.89F
PONTIAC        MOSUNNY   84  55  36 W20G26    29.93F
PORT HOPE        N/A     84  54  35 W12G25    29.84F
PORT HURON     MOSUNNY   81  59  47 W7        29.91S
TRI CITIES     SUNNY     86  52  30 W21G29    29.90S
MIDLAND        FAIR      86  49  27 W15G24    29.89S
TROY           SUNNY     86  52  30 W14G26    29.94F
SAGINAW HB     MOSUNNY   86  52  30 W14G24    29.89S
$$
MIZ043>046-050>051-056>058-064>065-071>073-077>080-302200-
SOUTHWEST LOWER MICHIGAN

CITY           SKY/WX    TMP DP  RH WIND       PRES   REMARKS
BATTLE CREEK   SUNNY     84  56  38 W20G25    30.01F
BENTON HARBOR  SUNNY     84  60  44 W13       30.02F
BIG RAPIDS     MOSUNNY   81  50  34 W13G24    29.95S
COLDWATER      SUNNY     82  53  37 W14G21    30.01S
FREMONT        FAIR      83  52  33 W12G20    29.96S
HOLLAND        SUNNY     82  61  48 W12       30.00F
GRAND RAPIDS   MOSUNNY   83  55  38 NW20G29   29.98F
IONIA          FAIR      83  54  35 W23G29    29.96S
KALAMAZOO      SUNNY     84  55  36 NW16G26   30.01F
LUDINGTON      SUNNY     81  64  57 SW7       29.95F
MARSHALL       SUNNY     83  56  38 W10G23    29.99F
MOUNT PLEASANT MOSUNNY   86  51  29 W9G25     29.92R
MUSKEGON       MOSUNNY   82  17   9 W13       29.98F
SOUTH HAVEN    SUNNY     81  59  47 W9        30.01F
$$
MIZ016>042-302200-
NORTHERN LOWER MICHIGAN

CITY           SKY/WX    TMP DP  RH WIND       PRES   REMARKS
ALPENA         PTSUNNY   81  54  39 W12G18    29.85R
BEAVER ISLAND  SUNNY     78  55  45 NW7       29.88S
BELLAIRE       MOSUNNY   82  52  35 W9G23     29.88F
CADILLAC       MOSUNNY   83  53  36 W20G28    29.94S
CHARLEVOIX     SUNNY     80  58  47 W18G24    29.91R
FRANKFORT      SUNNY     79  63  57 SW6       29.92S
GAYLORD        PTSUNNY   78  53  41 W20G33    29.90S
GRAYLING       MOSUNNY   80  52  36 W14G26    29.91S
HARBOR SPRINGS SUNNY     76  62  61 W9G21     29.88R
HOUGHTON LAKE  PTSUNNY   81  54  39 W15G25    29.92R
MANISTEE       SUNNY     81  57  44 W12       29.93F
OSCODA         PTSUNNY   87  49  27 NW17G25   29.83S
PELLSTON       MOSUNNY   80  57  45 NW12G20   29.87R
ROGERS CITY    CLOUDY    74  58  58 NW8       29.86R
TRAVERSE CITY  MOSUNNY   86  51  29 W20G33    29.88S
$$
MIZ007>008-015-302200-
EASTERN UPPER MICHIGAN

CITY           SKY/WX    TMP DP  RH WIND       PRES   REMARKS
KINROSS        CLOUDY    72  52  49 NW14G21   29.86R
MACKINAC ISLAN PTSUNNY   75  55  50 W9G21     29.85S
$$
MIZ004>006-011>014-085-302200-
CENTRAL UPPER MICHIGAN

CITY           SKY/WX    TMP DP  RH WIND       PRES   REMARKS
ESCANABA       MOSUNNY   82  48  30 NW13G22   29.87S
MENOMINEE      MOSUNNY   82  54  36 N12G18    29.89S
SAWYER-GWINN   MOSUNNY   81  46  30 NW15G21   29.89S
$$
MIZ001>003-009>011-084-302200-
WESTERN UPPER MICHIGAN

CITY           SKY/WX    TMP DP  RH WIND       PRES   REMARKS
IRON MOUNTAIN  SUNNY     82  48  30 W15G22    29.90F
HOUGHTON       MOSUNNY   77  51  40 W24G36    29.88S
COPPER HARBOR    N/A     78  53  41 N15G31    29.84S
IRONWOOD       CLOUDY    68  61  77 SW7       29.92F
$$

ABBREVIATIONS USED IN REMARKS
   TC - TEMPERATURE IN CELSIUS
  WCI - WIND CHILL INDEX
   HX - HEAT INDEX
  VSB - VISIBILITY




USA.gov is the U.S. government's official web portal to all federal, state and local government web resources and services.